When you browse on this site, cookies collect data to enhance your experience and personalize the content and advertising you see.
Visit our Privacy Policy to learn more. By continuing to use the site, you agree to this use of cookies and data.
  • în România
  • Lista ţărilor
  • Pe 7 zile
  • Temperatura apei
  • Hartă satelitară
  • Meteo pe hartă
  • Widget-uri
  • user-avatar
    Intrare

    Meteo pe oră la Birmingham

    Astăzi, 22 Aprilie, Luni

    Timp Temperatura Precipitaţii Vânt Presiune Umiditate
    00:00 +12°C° 0 mm 3 m/s 746 mmHg 71%
    01:00 +11°C° 0 mm 3 m/s 746 mmHg 71%
    02:00 +10°C° 0 mm 2 m/s 745 mmHg 71%
    03:00 +10°C° 0 mm 2 m/s 744 mmHg 72%
    04:00 +9°C° 0 mm 2 m/s 744 mmHg 67%
    05:00 +9°C° 0 mm 2 m/s 744 mmHg 63%
    06:00 +9°C° 0 mm 2 m/s 743 mmHg 52%
    07:00 +11°C° 0 mm 3 m/s 743 mmHg 52%
    08:00 +12°C° 0 mm 3 m/s 743 mmHg 52%
    09:00 +14°C° 0 mm 3 m/s 742 mmHg 51%
    10:00 +17°C° 0 mm 4 m/s 742 mmHg 52%
    11:00 +19°C° 0 mm 4 m/s 741 mmHg 52%
    12:00 +21°C° 0 mm 5 m/s 741 mmHg 53%
    13:00 +21°C° 0.1 mm 5 m/s 740 mmHg 53%
    14:00 +21°C° 0.1 mm 5 m/s 740 mmHg 53%
    15:00 +21°C° 0.1 mm 5 m/s 739 mmHg 53%
    16:00 +21°C° 0.1 mm 5 m/s 739 mmHg 58%
    17:00 +20°C° 0.1 mm 4 m/s 739 mmHg 62%
    18:00 +19°C° 0.1 mm 3 m/s 738 mmHg 66%
    19:00 +18°C° 0 mm 3 m/s 738 mmHg 71%
    20:00 +17°C° 0 mm 3 m/s 738 mmHg 75%
    21:00 +15°C° 0 mm 2 m/s 738 mmHg 79%
    22:00 +15°C° 0 mm 2 m/s 738 mmHg 82%
    23:00 +14°C° 0 mm 2 m/s 738 mmHg 84%

    Mâine, 23 Aprilie, Marţi

    Timp Temperatura Precipitaţii Vânt Presiune Umiditate
    00:00 +13°C° 0 mm 2 m/s 738 mmHg 86%
    01:00 +12°C° 0 mm 2 m/s 737 mmHg 84%
    02:00 +11°C° 0 mm 3 m/s 737 mmHg 82%
    03:00 +10°C° 0 mm 3 m/s 736 mmHg 80%
    04:00 +10°C° 0 mm 3 m/s 736 mmHg 81%
    05:00 +10°C° 0 mm 3 m/s 736 mmHg 82%
    06:00 +10°C° 0 mm 4 m/s 736 mmHg 83%
    07:00 +12°C° 0 mm 4 m/s 736 mmHg 79%
    08:00 +14°C° 0 mm 4 m/s 736 mmHg 76%
    09:00 +15°C° 0 mm 5 m/s 736 mmHg 73%
    10:00 +17°C° 0 mm 5 m/s 736 mmHg 69%
    11:00 +19°C° 0 mm 5 m/s 735 mmHg 65%
    12:00 +20°C° 0 mm 6 m/s 735 mmHg 62%
    13:00 +20°C° 0 mm 6 m/s 735 mmHg 61%
    14:00 +20°C° 0 mm 6 m/s 735 mmHg 61%
    15:00 +20°C° 0 mm 6 m/s 734 mmHg 60%
    16:00 +19°C° 0 mm 5 m/s 734 mmHg 64%
    17:00 +17°C° 0 mm 5 m/s 734 mmHg 68%
    18:00 +17°C° 0 mm 4 m/s 734 mmHg 72%
    19:00 +15°C° 0 mm 4 m/s 734 mmHg 74%
    20:00 +13°C° 0 mm 4 m/s 734 mmHg 76%
    21:00 +12°C° 0 mm 4 m/s 733 mmHg 78%
    22:00 +11°C° 0 mm 4 m/s 733 mmHg 81%
    23:00 +11°C° 0 mm 4 m/s 733 mmHg 85%

    Poimâine, 24 Aprilie, Miercuri

    Timp Temperatura Precipitaţii Vânt Presiune Umiditate
    00:00 +10°C° 0 mm 3 m/s 732 mmHg 88%
    01:00 +10°C° 0 mm 3 m/s 732 mmHg 89%
    02:00 +9°C° 0 mm 3 m/s 731 mmHg 91%
    03:00 +8°C° 0 mm 4 m/s 731 mmHg 92%
    04:00 +8°C° 0.1 mm 4 m/s 731 mmHg 93%
    05:00 +10°C° 0.1 mm 4 m/s 730 mmHg 93%
    06:00 +10°C° 0.1 mm 4 m/s 730 mmHg 93%
    07:00 +9°C° 0.8 mm 5 m/s 730 mmHg 92%
    08:00 +10°C° 0.8 mm 5 m/s 731 mmHg 92%
    09:00 +10°C° 0.8 mm 6 m/s 731 mmHg 92%
    10:00 +10°C° 1.2 mm 5 m/s 731 mmHg 90%
    11:00 +10°C° 1.2 mm 4 m/s 732 mmHg 89%
    12:00 +8°C° 1.2 mm 4 m/s 732 mmHg 88%
    13:00 +9°C° 0.1 mm 5 m/s 733 mmHg 81%
    14:00 +12°C° 0.1 mm 5 m/s 733 mmHg 73%
    15:00 +13°C° 0.1 mm 6 m/s 733 mmHg 66%
    16:00 +13°C° 0.1 mm 5 m/s 733 mmHg 69%
    17:00 +12°C° 0.1 mm 5 m/s 733 mmHg 71%
    18:00 +12°C° 0.1 mm 4 m/s 733 mmHg 74%
    19:00 +11°C° 0.1 mm 4 m/s 733 mmHg 76%
    20:00 +9°C° 0.1 mm 5 m/s 733 mmHg 79%
    21:00 +8°C° 0.1 mm 5 m/s 733 mmHg 81%
    22:00 +8°C° 0.7 mm 6 m/s 733 mmHg 83%
    23:00 +8°C° 0.7 mm 6 m/s 733 mmHg 86%

    25 Aprilie, Joi

    Timp Temperatura Precipitaţii Vânt Presiune Umiditate
    00:00 +8°C° 0.7 mm 7 m/s 732 mmHg 89%
    01:00 +8°C° 0.2 mm 6 m/s 732 mmHg 90%
    02:00 +8°C° 0.2 mm 6 m/s 732 mmHg 91%
    03:00 +8°C° 0.2 mm 5 m/s 732 mmHg 92%
    04:00 +8°C° 1.3 mm 5 m/s 732 mmHg 91%
    05:00 +8°C° 1.3 mm 5 m/s 731 mmHg 91%
    06:00 +7°C° 1.3 mm 5 m/s 731 mmHg 91%
    07:00 +8°C° 0.1 mm 6 m/s 731 mmHg 85%
    08:00 +9°C° 0.1 mm 7 m/s 732 mmHg 79%
    09:00 +10°C° 0.1 mm 8 m/s 732 mmHg 74%
    10:00 +11°C° 0.2 mm 8 m/s 731 mmHg 69%
    11:00 +11°C° 0.2 mm 9 m/s 731 mmHg 65%
    12:00 +12°C° 0.2 mm 10 m/s 731 mmHg 61%
    13:00 +11°C° 0.4 mm 9 m/s 731 mmHg 69%
    14:00 +10°C° 0.4 mm 8 m/s 731 mmHg 77%
    15:00 +9°C° 0.4 mm 8 m/s 731 mmHg 85%
    16:00 +9°C° 0.2 mm 8 m/s 732 mmHg 82%
    17:00 +9°C° 0.2 mm 8 m/s 733 mmHg 79%
    18:00 +9°C° 0.2 mm 8 m/s 734 mmHg 75%
    19:00 +9°C° 0 mm 7 m/s 735 mmHg 77%
    20:00 +8°C° 0 mm 6 m/s 737 mmHg 79%
    21:00 +7°C° 0 mm 5 m/s 738 mmHg 81%
    22:00 +7°C° 0 mm 5 m/s 738 mmHg 82%
    23:00 +7°C° 0 mm 5 m/s 739 mmHg 84%

    26 Aprilie, Vineri

    Timp Temperatura Precipitaţii Vânt Presiune Umiditate
    00:00 +6°C° 0 mm 5 m/s 740 mmHg 86%
    01:00 +6°C° 0 mm 5 m/s 740 mmHg 87%
    02:00 +6°C° 0 mm 4 m/s 740 mmHg 88%
    03:00 +6°C° 0 mm 4 m/s 740 mmHg 89%
    04:00 +6°C° 0 mm 4 m/s 740 mmHg 89%
    05:00 +6°C° 0 mm 4 m/s 741 mmHg 90%
    06:00 +7°C° 0 mm 3 m/s 741 mmHg 91%
    07:00 +7°C° 0 mm 4 m/s 741 mmHg 86%
    08:00 +8°C° 0 mm 4 m/s 742 mmHg 81%
    09:00 +11°C° 0 mm 4 m/s 742 mmHg 76%
    10:00 +12°C° 0.1 mm 3 m/s 743 mmHg 73%
    11:00 +13°C° 0.1 mm 3 m/s 743 mmHg 69%
    12:00 +14°C° 0.1 mm 3 m/s 744 mmHg 66%
    13:00 +14°C° 0.8 mm 4 m/s 744 mmHg 69%
    14:00 +13°C° 0.8 mm 5 m/s 745 mmHg 71%
    15:00 +13°C° 0.8 mm 6 m/s 745 mmHg 74%
    16:00 +11°C° 0.2 mm 6 m/s 746 mmHg 74%
    17:00 +10°C° 0.2 mm 6 m/s 746 mmHg 73%
    18:00 +9°C° 0.2 mm 5 m/s 746 mmHg 73%
    19:00 +8°C° 0 mm 5 m/s 746 mmHg 75%
    20:00 +7°C° 0 mm 5 m/s 747 mmHg 77%
    21:00 +6°C° 0 mm 5 m/s 747 mmHg 79%
    22:00 +6°C° 0 mm 5 m/s 747 mmHg 82%
    23:00 +7°C° 0 mm 6 m/s 747 mmHg 84%

    27 Aprilie, Sâmbătă

    Timp Temperatura Precipitaţii Vânt Presiune Umiditate
    00:00 +8°C° 0 mm 6 m/s 747 mmHg 86%
    01:00 +7°C° 0 mm 6 m/s 747 mmHg 84%
    02:00 +6°C° 0 mm 5 m/s 748 mmHg 81%
    03:00 +3°C° 0 mm 5 m/s 748 mmHg 79%
    04:00 +3°C° 0 mm 5 m/s 748 mmHg 79%
    05:00 +3°C° 0 mm 5 m/s 749 mmHg 79%
    06:00 +3°C° 0 mm 5 m/s 749 mmHg 79%
    07:00 +5°C° 0 mm 6 m/s 749 mmHg 74%
    08:00 +7°C° 0 mm 6 m/s 749 mmHg 69%
    09:00 +8°C° 0 mm 6 m/s 750 mmHg 64%
    10:00 +8°C° 0.3 mm 6 m/s 749 mmHg 70%
    11:00 +8°C° 0.3 mm 6 m/s 749 mmHg 75%
    12:00 +8°C° 0.3 mm 6 m/s 748 mmHg 81%
    13:00 +9°C° 0.7 mm 6 m/s 748 mmHg 84%
    14:00 +9°C° 0.7 mm 7 m/s 747 mmHg 88%
    15:00 +10°C° 0.7 mm 8 m/s 747 mmHg 92%
    16:00 +11°C° 0.1 mm 7 m/s 747 mmHg 90%
    17:00 +11°C° 0.1 mm 7 m/s 747 mmHg 89%
    18:00 +11°C° 0.1 mm 6 m/s 747 mmHg 88%
    19:00 +11°C° 0.1 mm 6 m/s 747 mmHg 89%
    20:00 +10°C° 0.1 mm 5 m/s 748 mmHg 90%
    21:00 +10°C° 0.1 mm 5 m/s 748 mmHg 90%
    22:00 +9°C° 0 mm 5 m/s 749 mmHg 90%
    23:00 +9°C° 0 mm 5 m/s 749 mmHg 91%
    Arată mai mult